Location: UBC Liquid-Mirror Observatory
(49.2876°N, 122.5728°W)
Time: 06:39:48
(UTC-08:00)

Amateur Radio Satellites - All Passes

Search period start: 13 December 2017 06:09
Search period end: 14 December 2017 06:09
Location: UBC Liquid-Mirror Observatory, 49.2876°N, 122.5728°W

Satellite Date Start Highest point End Downlink Frequencies (MHz)
Time Altitude Azimuth
AO-85 13 Dec 06:18:03 06:22:41 62° 47° (NE) 06:27:40 145.980
NUDT-PHONESAT 13 Dec 06:19:14 06:22:53 46° 99° (E) 06:26:31 437.300
KAITUO 1B 13 Dec 06:19:54 06:23:38 50° 100° (E) 06:27:20 145.475/437.950
XW-2B 13 Dec 06:23:00 06:26:52 75° 102° (ESE) 06:30:43 145.730 - 145.750
SEEDS 13 Dec 06:27:00 06:29:34 15° 89° (E) 06:32:06 437.485
ITAMSAT 1 13 Dec 06:34:08 06:34:26 10° 312° (NW) 06:34:44 435.822/435.867
XW-2F 13 Dec 06:36:37 06:40:29 81° 284° (WNW) 06:44:18 145.980 - 146.000
DOVE 4 13 Dec 06:41:24 06:44:45 20° 300° (WNW) 06:47:58 437.250
YUBILEINY 13 Dec 06:45:24 06:49:03 13° 318° (NW) 06:52:44 435.215
CUTE 1.7 + AOD 2 13 Dec 06:45:40 06:49:39 36° 96° (E) 06:53:37 437.475
XW-2C 13 Dec 06:50:23 06:54:10 53° 287° (WNW) 06:57:55 145.795 - 145.815
AAUSAT CUBESAT 2 13 Dec 06:51:41 06:53:24 12° 87° (E) 06:55:06 437.432
NO-84 13 Dec 07:00:59 07:03:16 19° 133° (SE) 07:05:40 435.350 FM
FO-29 13 Dec 07:12:17 07:19:58 66° 69° (ENE) 07:27:41 435.910
CUBEBUG 2 13 Dec 07:16:24 07:20:28 44° 99° (E) 07:24:36 437.445
UWE-3 13 Dec 07:19:41 07:23:27 29° 95° (E) 07:27:16 435.000/436.395/437.385
XW-2A 13 Dec 07:19:58 07:22:35 20° 94° (E) 07:25:11 145.665 - 145.685
BEESAT 2 13 Dec 07:22:11 07:24:02 13° 249° (WSW) 07:25:53 435.950
AO-7 13 Dec 07:23:52 07:28:02 15° 328° (NNW) 07:32:12 .
LilacSat-2 13 Dec 07:25:14 07:28:21 23° 295° (WNW) 07:31:26 437.200
STRAND 1 13 Dec 07:29:37 07:34:19 36° 264° (W) 07:39:02 437.568
XW-2D 13 Dec 07:42:18 07:44:49 17° 298° (WNW) 07:47:19 145.860 - 145.880
CUTE-I 13 Dec 07:44:39 07:49:30 36° 296° (WNW) 07:54:19 437.470
HO-68 13 Dec 07:48:19 07:55:32 86° 290° (WNW) 08:02:42 435.675
ZACube-1 13 Dec 07:48:20 07:52:12 31° 95° (E) 07:56:08 437.345
O/OREOS (USA 219) 13 Dec 07:50:15 07:53:04 16° 100° (E) 07:55:54 437.305
NUDT-PHONESAT 13 Dec 07:53:52 07:56:24 17° 297° (WNW) 07:58:56 437.300
KAITUO 1B 13 Dec 07:54:46 07:57:15 17° 298° (WNW) 07:59:44 145.475/437.950
XW-2B 13 Dec 07:58:47 08:00:29 13° 301° (WNW) 08:02:13 145.730 - 145.750
TIGRISAT 13 Dec 07:58:50 08:02:06 22° 63° (ENE) 08:05:21 435.000
AO-85 13 Dec 07:58:59 08:02:51 25° 245° (WSW) 08:06:54 145.980
UNISAT 6 13 Dec 08:01:24 08:04:53 25° 64° (ENE) 08:08:22 437.425
SEEDS 13 Dec 08:01:26 08:05:39 63° 288° (WNW) 08:09:50 437.485
Oscar 11 13 Dec 08:10:53 08:14:48 31° 95° (E) 08:18:41 .
CUTE 1.7 + AOD 2 13 Dec 08:21:43 08:25:22 27° 295° (WNW) 08:28:59 437.475
AO-73 13 Dec 08:23:03 08:27:21 61° 101° (ESE) 08:31:43 145.935
AAUSAT CUBESAT 2 13 Dec 08:25:12 08:29:23 77° 286° (WNW) 08:33:32 437.432
NO-84 13 Dec 08:36:56 08:40:07 72° 332° (NNW) 08:43:35 435.350 FM
XW-2A 13 Dec 08:52:16 08:55:20 30° 291° (WNW) 08:58:22 145.665 - 145.685
CUBEBUG 2 13 Dec 08:53:35 08:56:51 22° 296° (WNW) 09:00:10 437.445
UWE-3 13 Dec 08:56:06 08:59:56 33° 292° (WNW) 09:03:49 435.000/436.395/437.385
FO-29 13 Dec 08:58:30 09:05:24 34° 269° (W) 09:12:24 435.910
PRISM 13 Dec 09:08:42 09:12:32 37° 68° (ENE) 09:16:23 437.425
EO-88 13 Dec 09:09:55 09:11:35 13° 89° (E) 09:13:15 145.990 - 145.960
ZACube-1 13 Dec 09:24:39 09:28:28 31° 293° (WNW) 09:32:21 437.345
O/OREOS (USA 219) 13 Dec 09:27:22 09:31:57 69° 299° (WNW) 09:36:32 437.305
TIGRISAT 13 Dec 09:34:24 09:38:32 46° 261° (W) 09:42:40 435.000
AIST 2D 13 Dec 09:34:44 09:37:27 21° 66° (ENE) 09:40:11 435.315
HO-68 13 Dec 09:37:02 09:42:22 23° 310° (NW) 09:47:41 435.675
UNISAT 6 13 Dec 09:37:23 09:41:26 40° 262° (W) 09:45:28 437.425
DELFI C3 13 Dec 09:41:26 09:45:21 57° 100° (E) 09:49:14 145.870
Oscar 11 13 Dec 09:47:02 09:50:54 32° 294° (WNW) 09:54:46 .
QB50P2 13 Dec 09:47:17 09:49:49 16° 59° (ENE) 09:52:22 145.880/145.840
DUCHIFAT 1 13 Dec 09:55:26 09:57:31 14° 58° (ENE) 09:59:35 145.980
AO-73 13 Dec 10:00:16 10:03:10 18° 299° (WNW) 10:06:08 145.935
AAUSAT CUBESAT 2 13 Dec 10:03:09 10:04:05 11° 304° (NW) 10:05:01 437.432
Max Valier Satellite 13 Dec 10:10:19 10:14:04 86° 104° (ESE) 10:17:48 145.860
NO-84 13 Dec 10:14:41 10:17:46 32° 355° (N) 10:21:06 435.350 FM
NANOSAT C BR1 13 Dec 10:19:23 10:22:48 25° 64° (ENE) 10:26:12 145.865
EO-79 13 Dec 10:33:09 10:37:00 36° 68° (ENE) 10:40:52 145.935-145.965
EO-88 13 Dec 10:41:58 10:45:36 59° 286° (WNW) 10:49:12 145.990 - 145.960
BUGSAT 1 13 Dec 10:43:07 10:44:02 11° 56° (NE) 10:44:58 437.445
PRISM 13 Dec 10:44:25 10:47:53 25° 266° (W) 10:51:21 437.425
POLYITAN 1 13 Dec 10:55:24 10:59:31 60° 72° (ENE) 11:03:40 437.675
AO-7 13 Dec 11:03:43 11:06:03 11° 24° (NNE) 11:08:22 .
AIST 2D 13 Dec 11:07:18 11:10:28 31° 264° (W) 11:13:40 435.315
O/OREOS (USA 219) 13 Dec 11:09:53 11:12:15 14° 320° (NW) 11:14:37 437.305
LO-87 13 Dec 11:17:11 11:20:37 47° 100° (E) 11:24:03 145.935 - 145.965
DELFI C3 13 Dec 11:17:11 11:19:40 16° 299° (WNW) 11:22:08 145.870
QB50P2 13 Dec 11:20:57 11:25:08 68° 258° (WSW) 11:29:20 145.880/145.840
nSIGHT-1 13 Dec 11:21:04 11:21:37 10° 135° (SE) 11:22:11 .
DUCHIFAT 1 13 Dec 11:28:25 11:32:35 80° 256° (WSW) 11:36:47 145.980
ESTCUBE 1 13 Dec 11:39:53 11:44:25 61° 102° (ESE) 11:48:54 437.505/2401.250
VELOX 1 13 Dec 11:45:17 11:47:00 12° 87° (E) 11:48:42 145.980
Oscar 19 13 Dec 11:46:12 11:50:42 31° 63° (ENE) 11:55:13 437.125/150
Max Valier Satellite 13 Dec 11:46:25 11:47:16 11° 302° (WNW) 11:48:07 145.860
NO-84 13 Dec 11:52:12 11:55:37 41° 16° (NNE) 11:59:17 435.350 FM
NANOSAT C BR1 13 Dec 11:54:25 11:58:20 38° 262° (W) 12:02:16 145.865
ISS 13 Dec 11:56:00 11:58:10 16° 139° (SE) 12:00:20 437.550
EO-79 13 Dec 12:09:21 12:12:51 25° 266° (W) 12:16:21 145.935-145.965
BUGSAT 1 13 Dec 12:14:40 12:18:42 82° 75° (ENE) 12:22:45 437.445
Gurwin Techsat 1B 13 Dec 12:16:17 12:21:16 42° 66° (ENE) 12:26:15 435.225
AO-91 13 Dec 12:22:03 12:26:48 55° 72° (ENE) 12:31:07 145.960
POLYITAN 1 13 Dec 12:33:10 12:35:42 15° 270° (W) 12:38:14 437.675
SPROUT 13 Dec 12:34:58 12:39:10 58° 101° (E) 12:43:21 437.525
DX 1 13 Dec 12:45:49 12:47:05 11° 87° (E) 12:48:21 434.975-435.025
YUBILEINY 13 Dec 12:48:46 12:56:26 31° 61° (ENE) 13:04:00 435.215
AO-7 13 Dec 12:49:13 12:56:13 32° 49° (NE) 13:03:15 .
RS-15 13 Dec 12:49:53 12:56:22 16° 93° (E) 13:02:49 29.354- 29.394
LO-87 13 Dec 12:51:31 12:53:41 16° 297° (WNW) 12:55:50 145.935 - 145.965
nSIGHT-1 13 Dec 12:54:05 12:57:13 50° 152° (SSE) 13:00:22 .
50 SAT 13 Dec 12:57:07 12:57:47 10° 90° (E) 12:58:26 437.505
ITAMSAT 1 13 Dec 12:58:38 13:00:29 12° 50° (NE) 13:02:19 435.822/435.867
ESTCUBE 1 13 Dec 13:17:33 13:20:47 19° 300° (WNW) 13:24:01 437.505/2401.250
VELOX 1 13 Dec 13:19:37 13:24:04 85° 283° (WNW) 13:28:28 145.980
Oscar 19 13 Dec 13:25:01 13:29:53 43° 262° (W) 13:34:49 437.125/150
M-CUBED/EXP-1 PRIME 13 Dec 13:27:23 13:31:15 30° 58° (ENE) 13:35:15 437.505
NO-84 13 Dec 13:29:22 13:33:03 64° 214° (SW) 13:37:01 435.350 FM
ISS 13 Dec 13:30:55 13:34:13 72° 157° (SSE) 13:37:30 437.550
BUGSAT 1 13 Dec 13:53:35 13:54:37 11° 273° (W) 13:55:39 437.445
Gurwin Techsat 1B 13 Dec 13:56:32 14:01:18 33° 265° (W) 14:06:06 435.225
AO-91 13 Dec 13:59:51 14:03:27 21° 267° (W) 14:06:52 145.960
UKube-1 13 Dec 14:06:43 14:10:52 43° 99° (E) 14:14:59 .
SPROUT 13 Dec 14:11:46 14:14:39 18° 300° (WNW) 14:17:33 437.525
DX 1 13 Dec 14:19:32 14:23:55 89° 287° (WNW) 14:28:16 434.975-435.025
50 SAT 13 Dec 14:26:57 14:30:02 51° 288° (WNW) 14:33:06 437.505
nSIGHT-1 13 Dec 14:30:14 14:33:26 59° 352° (N) 14:36:38 .
ITAMSAT 1 13 Dec 14:33:48 14:38:56 60° 70° (ENE) 14:44:05 435.822/435.867
DOVE 4 13 Dec 14:36:11 14:39:24 17° 57° (ENE) 14:42:32 437.250
AO-7 13 Dec 14:39:56 14:48:16 80° 251° (WSW) 14:56:40 .
YUBILEINY 13 Dec 14:45:19 14:54:08 75° 265° (W) 15:02:52 435.215
RS-15 13 Dec 14:54:11 15:06:10 61° 117° (ESE) 15:17:59 29.354- 29.394
VELOX 1 13 Dec 14:57:50 14:59:48 13° 305° (NW) 15:01:46 145.980
M-CUBED/EXP-1 PRIME 13 Dec 15:01:23 15:05:28 39° 257° (WSW) 15:09:47 437.505
MOZHAYETS 4 13 Dec 15:04:05 15:08:28 42° 98° (E) 15:12:52
ISS 13 Dec 15:07:34 15:10:48 55° 356° (N) 15:14:04 437.550
NO-84 13 Dec 15:07:57 15:09:48 13° 231° (SW) 15:11:43 435.350 FM
BEESAT 13 Dec 15:13:52 15:18:15 35° 97° (E) 15:22:37 436.000
SO-50 13 Dec 15:24:16 15:27:57 25° 116° (ESE) 15:31:39 436.795
ITUPSAT 1 13 Dec 15:41:09 15:45:54 61° 102° (ESE) 15:50:37 437.325
UKube-1 13 Dec 15:43:13 15:46:39 24° 298° (WNW) 15:50:04 .
XW-2F 13 Dec 15:50:51 15:51:07 10° 57° (ENE) 15:51:23 145.980 - 146.000
CUTE-I 13 Dec 15:52:56 15:56:23 18° 55° (NE) 15:59:51 437.470
DX 1 13 Dec 15:57:23 15:59:26 13° 304° (NW) 16:01:29 434.975-435.025
XW-2C 13 Dec 16:02:57 16:05:04 15° 60° (ENE) 16:07:11 145.795 - 145.815
nSIGHT-1 13 Dec 16:06:40 16:09:52 64° 11° (N) 16:13:05 .
DOVE 4 13 Dec 16:11:07 16:16:25 89° 65° (ENE) 16:21:33 437.250
ITAMSAT 1 13 Dec 16:14:47 16:18:47 22° 268° (W) 16:22:49 435.822/435.867
O/OREOS (USA 219) 13 Dec 16:16:09 16:18:13 13° 39° (NE) 16:20:15 437.305
CUBESAT XI-V 13 Dec 16:23:58 16:28:41 65° 102° (ESE) 16:33:21 437.345
HO-68 13 Dec 16:35:01 16:40:52 28° 53° (NE) 16:46:43 435.675
LilacSat-2 13 Dec 16:36:16 16:39:41 32° 68° (ENE) 16:43:09 437.200
AO-7 13 Dec 16:36:42 16:42:21 20° 273° (W) 16:48:04 .
MOZHAYETS 4 13 Dec 16:41:35 16:45:27 27° 296° (WNW) 16:49:20
YUBILEINY 13 Dec 16:44:01 16:49:21 18° 288° (WNW) 16:54:40 435.215
ISS 13 Dec 16:44:12 16:47:30 79° 16° (NNE) 16:50:47 437.550
BEESAT 13 Dec 16:51:44 16:55:59 33° 295° (WNW) 17:00:14 436.000
XW-2D 13 Dec 16:51:59 16:55:36 44° 71° (ENE) 16:59:16 145.860 - 145.880
NUDT-PHONESAT 13 Dec 17:01:48 17:05:14 38° 70° (ENE) 17:08:43 437.300
KKS-1 13 Dec 17:02:32 17:06:33 32° 96° (E) 17:10:32 437.445
KAITUO 1B 13 Dec 17:03:19 17:06:52 42° 70° (ENE) 17:10:28 145.475/437.950
SO-50 13 Dec 17:03:45 17:08:08 53° 316° (NW) 17:12:36 436.795
RS-15 13 Dec 17:06:48 17:18:58 59° 323° (NW) 17:30:54 29.354- 29.394
XW-2B 13 Dec 17:07:40 17:11:25 64° 73° (ENE) 17:15:13 145.730 - 145.750
ITUPSAT 1 13 Dec 17:19:46 17:23:18 21° 301° (WNW) 17:26:51 437.325
XW-2F 13 Dec 17:20:46 17:24:32 85° 76° (ENE) 17:28:22 145.980 - 146.000
SEEDS 13 Dec 17:22:27 17:25:26 19° 61° (ENE) 17:28:26 437.485
CUTE-I 13 Dec 17:30:21 17:35:44 90° 230° (SW) 17:41:09 437.470
XW-2C 13 Dec 17:35:02 17:38:46 61° 259° (W) 17:42:35 145.795 - 145.815
CUTE 1.7 + AOD 2 13 Dec 17:41:54 17:45:55 42° 69° (ENE) 17:49:59 437.475
nSIGHT-1 13 Dec 17:42:57 17:46:01 40° 211° (SSW) 17:49:03 .
AAUSAT CUBESAT 2 13 Dec 17:45:27 17:47:53 15° 60° (ENE) 17:50:21 437.432
STARS 13 Dec 17:48:43 17:52:49 39° 98° (E) 17:56:54 437.465
AO-73 13 Dec 17:50:18 17:50:58 10° 55° (NE) 17:51:38 145.935
DOVE 4 13 Dec 17:51:49 17:54:43 15° 273° (W) 17:57:34 437.250
O/OREOS (USA 219) 13 Dec 17:54:05 17:58:35 63° 60° (ENE) 18:03:01 437.305
XW-2A 13 Dec 17:55:34 17:57:26 14° 62° (ENE) 17:59:19 145.665 - 145.685
PCSat 13 Dec 17:59:22 18:02:49 17° 105° (ESE) 18:06:17 145.827
CUBESAT XI-V 13 Dec 18:02:14 18:05:35 19° 300° (WNW) 18:08:55 437.345
LilacSat-2 13 Dec 18:10:52 18:14:00 24° 266° (W) 18:17:11 437.200
CUBEBUG 2 13 Dec 18:18:18 18:22:26 60° 73° (ENE) 18:26:33 437.445
UWE-3 13 Dec 18:20:35 18:24:25 37° 68° (ENE) 18:28:15 435.000/436.395/437.385
HO-68 13 Dec 18:20:45 18:27:57 78° 254° (WSW) 18:35:12 435.675
ISS 13 Dec 18:20:54 18:23:46 27° 215° (SW) 18:26:37 437.550
XW-2D 13 Dec 18:27:27 18:30:01 17° 269° (W) 18:32:36 145.860 - 145.880
NUDT-PHONESAT 13 Dec 18:36:32 18:39:14 19° 268° (W) 18:41:57 437.300
KAITUO 1B 13 Dec 18:38:27 18:41:03 18° 269° (W) 18:43:41 145.475/437.950
KKS-1 13 Dec 18:39:08 18:43:05 32° 295° (WNW) 18:46:59 437.445
XW-2B 13 Dec 18:44:23 18:46:01 12° 272° (W) 18:47:40 145.730 - 145.750
SO-50 13 Dec 18:46:37 18:49:35 17° 338° (NNW) 18:52:36 436.795
ZACube-1 13 Dec 18:48:02 18:51:52 38° 69° (ENE) 18:55:45 437.345
SEEDS 13 Dec 18:56:36 19:00:44 54° 260° (W) 19:04:56 437.485
Oscar 11 13 Dec 19:09:20 19:13:22 40° 69° (ENE) 19:17:26 .
CUTE-I 13 Dec 19:13:34 19:16:32 15° 273° (W) 19:19:31 437.470
CUTE 1.7 + AOD 2 13 Dec 19:18:35 19:21:56 22° 268° (W) 19:25:19 437.475
AAUSAT CUBESAT 2 13 Dec 19:18:40 19:22:50 70° 259° (W) 19:27:02 437.432
AO-73 13 Dec 19:22:20 19:26:26 77° 75° (ENE) 19:30:36 145.935
RS-15 13 Dec 19:23:15 19:34:28 38° 355° (N) 19:45:17 29.354- 29.394
STARS 13 Dec 19:25:22 19:29:01 26° 296° (WNW) 19:32:38 437.465
XW-2A 13 Dec 19:26:32 19:29:46 46° 261° (W) 19:33:03 145.665 - 145.685
O/OREOS (USA 219) 13 Dec 19:34:35 19:37:30 17° 260° (W) 19:40:23 437.305
STRAND 1 13 Dec 19:35:07 19:40:09 56° 101° (E) 19:45:10 437.568
PCSat 13 Dec 19:40:05 19:45:30 87° 305° (NW) 19:50:59 145.827
EO-88 13 Dec 19:52:08 19:53:24 11° 59° (ENE) 19:54:39 145.990 - 145.960
CUBEBUG 2 13 Dec 19:56:59 19:59:27 15° 271° (W) 20:01:55 437.445
UWE-3 13 Dec 19:57:38 20:01:00 24° 267° (W) 20:04:23 435.000/436.395/437.385
FO-29 13 Dec 20:03:34 20:10:12 40° 93° (E) 20:16:06 435.910
HO-68 13 Dec 20:12:26 20:16:51 17° 274° (W) 20:21:16 435.675
ZACube-1 13 Dec 20:25:00 20:28:18 23° 267° (W) 20:31:38 437.345
DELFI C3 13 Dec 20:30:01 20:33:56 57° 73° (ENE) 20:37:52 145.870
SO-50 13 Dec 20:30:05 20:31:54 12° 3° (N) 20:33:43 436.795
BEESAT 3 13 Dec 20:36:57 20:40:49 49° 123° (ESE) 20:44:41 437.485
Oscar 11 13 Dec 20:46:07 20:49:38 24° 267° (W) 20:53:12 .
Max Valier Satellite 13 Dec 20:52:32 20:56:10 69° 74° (ENE) 20:59:50 145.860
AO-73 13 Dec 21:01:40 21:03:14 12° 273° (W) 21:04:49 145.935
ESTCUBE 1 13 Dec 21:09:07 21:11:26 14° 56° (NE) 21:13:46 437.505/2401.250
BEESAT 2 13 Dec 21:14:41 21:18:23 36° 120° (ESE) 21:22:08 435.950
STRAND 1 13 Dec 21:14:56 21:19:01 25° 300° (WNW) 21:23:03 437.568
TIGRISAT 13 Dec 21:21:25 21:25:02 25° 94° (E) 21:28:41 435.000
EO-88 13 Dec 21:22:50 21:26:28 76° 256° (WSW) 21:30:09 145.990 - 145.960
UNISAT 6 13 Dec 21:24:18 21:28:07 29° 95° (E) 21:31:57 437.425
PCSat 13 Dec 21:25:20 21:29:41 24° 327° (NNW) 21:34:01 145.827
RS-15 13 Dec 21:38:39 21:50:21 50° 29° (NNE) 22:01:26 29.354- 29.394
FO-29 13 Dec 21:48:33 21:55:23 47° 297° (WNW) 22:01:27 435.910
LO-87 13 Dec 21:56:46 22:00:01 35° 70° (ENE) 22:03:16 145.935 - 145.965
SPROUT 13 Dec 21:59:55 22:00:51 11° 55° (NE) 22:01:48 437.525
DELFI C3 13 Dec 22:06:39 22:09:02 15° 270° (W) 22:11:24 145.870
SO-50 13 Dec 22:10:31 22:14:04 21° 28° (NNE) 22:17:38 436.795
BEESAT 3 13 Dec 22:15:05 22:18:33 27° 323° (NW) 22:22:00 437.485
AO-85 13 Dec 22:16:49 22:20:31 40° 120° (ESE) 22:24:26 145.980
PRISM 13 Dec 22:20:39 22:24:21 32° 96° (E) 22:28:02 437.425
AIST 2D 13 Dec 22:28:27 22:30:30 15° 90° (E) 22:32:34 435.315
Max Valier Satellite 13 Dec 22:29:30 22:30:27 11° 272° (W) 22:31:24 145.860
ESTCUBE 1 13 Dec 22:43:02 22:47:34 90° 85° (E) 22:52:08 437.505/2401.250
VELOX 1 13 Dec 22:45:37 22:48:49 20° 60° (ENE) 22:52:02 145.980
BEESAT 2 13 Dec 22:52:25 22:56:08 34° 320° (NW) 22:59:53 435.950
TIGRISAT 13 Dec 22:57:50 23:01:50 38° 291° (WNW) 23:05:53 435.000
UNISAT 6 13 Dec 23:00:58 23:04:50 33° 293° (WNW) 23:08:47 437.425
QB50P2 13 Dec 23:02:36 23:05:00 15° 89° (E) 23:07:25 145.880/145.840
DUCHIFAT 1 13 Dec 23:09:48 23:11:27 12° 88° (E) 23:13:07 145.980
PCSat 13 Dec 23:12:59 23:15:08 12° 353° (N) 23:17:17 145.827
LO-87 13 Dec 23:30:59 23:33:32 18° 267° (W) 23:36:06 145.935 - 145.965
SPROUT 13 Dec 23:31:44 23:35:59 74° 73° (ENE) 23:40:14 437.525
NANOSAT C BR1 13 Dec 23:34:19 23:37:46 24° 94° (E) 23:41:12 145.865
FO-29 13 Dec 23:35:38 23:38:35 13° 320° (NW) 23:41:26 435.910
DX 1 13 Dec 23:44:16 23:47:18 19° 59° (ENE) 23:50:19 434.975-435.025
EO-79 13 Dec 23:48:44 23:52:40 37° 97° (E) 23:56:36 145.935-145.965
SO-50 13 Dec 23:50:34 23:55:14 78° 49° (NE) 23:59:57 436.795
RS-15 13 Dec 23:51:54 00:03:47 76° 237° (WSW) 00:14:59 29.354- 29.394
PRISM 13 Dec 23:56:01 23:59:33 28° 295° (WNW) 00:03:04 437.425
BEESAT 3 13 Dec 23:56:41 23:57:22 10° 346° (NNW) 23:58:02 437.485
AO-85 13 Dec 23:57:22 00:01:00 32° 322° (NW) 00:04:52 145.980
AIST 2D 14 Dec 00:00:30 00:03:55 46° 289° (WNW) 00:07:21 435.315
POLYITAN 1 14 Dec 00:11:21 00:15:33 63° 102° (ESE) 00:19:44 437.675
VELOX 1 14 Dec 00:20:29 00:24:53 58° 259° (WSW) 00:29:18 145.980
ESTCUBE 1 14 Dec 00:23:23 00:25:02 12° 274° (W) 00:26:42 437.505/2401.250
Gurwin Techsat 1B 14 Dec 00:30:29 00:31:59 11° 84° (E) 00:33:28 435.225
BEESAT 2 14 Dec 00:33:27 00:35:01 12° 342° (NNW) 00:36:34 435.950
QB50P2 14 Dec 00:37:02 00:41:14 65° 288° (WNW) 00:45:25 145.880/145.840
MOZHAYETS 4 14 Dec 00:37:09 00:37:54 10° 53° (NE) 00:38:39
DUCHIFAT 1 14 Dec 00:43:28 00:47:39 79° 286° (WNW) 00:51:51 145.980
BEESAT 14 Dec 00:50:18 00:51:48 11° 52° (NE) 00:53:17 436.000
50 SAT 14 Dec 00:56:16 00:59:27 87° 85° (E) 01:02:39 437.505
PCSat 14 Dec 00:57:49 01:00:58 15° 20° (NNE) 01:04:06 145.827
UKube-1 14 Dec 01:04:40 01:08:57 64° 72° (ENE) 01:13:15 .
NANOSAT C BR1 14 Dec 01:09:41 01:13:35 38° 292° (WNW) 01:17:29 145.865
SPROUT 14 Dec 01:10:23 01:12:23 13° 272° (W) 01:14:23 437.525
ITUPSAT 1 14 Dec 01:16:04 01:19:15 18° 57° (ENE) 01:22:27 437.325
DX 1 14 Dec 01:18:43 01:23:03 61° 258° (WSW) 01:27:25 434.975-435.025
EO-79 14 Dec 01:24:47 01:28:17 26° 296° (WNW) 01:31:46 145.935-145.965
BUGSAT 1 14 Dec 01:27:07 01:31:11 78° 104° (ESE) 01:35:14 437.445
Oscar 19 14 Dec 01:31:48 01:36:52 49° 99° (E) 01:41:54 437.125/150
SO-50 14 Dec 01:32:04 01:35:10 18° 248° (WSW) 01:38:18 436.795
AO-85 14 Dec 01:40:53 01:42:46 13° 347° (NNW) 01:44:42 145.980
AO-91 14 Dec 01:44:25 01:47:58 59° 101° (E) 01:51:18 145.960
POLYITAN 1 14 Dec 01:48:11 01:50:53 17° 300° (WNW) 01:53:36 437.675
CUBESAT XI-V 14 Dec 01:56:05 01:58:52 16° 57° (ENE) 02:01:41 437.345
YUBILEINY 14 Dec 01:56:24 02:03:32 29° 79° (E) 02:10:41 435.215
RS-15 14 Dec 02:06:01 02:14:02 22° 262° (W) 02:21:51 29.354- 29.394
Gurwin Techsat 1B 14 Dec 02:07:32 02:12:53 72° 103° (ESE) 02:18:11 435.225
MOZHAYETS 4 14 Dec 02:09:39 02:14:09 64° 72° (ENE) 02:18:42
DUCHIFAT 1 14 Dec 02:21:27 02:22:35 11° 304° (NW) 02:23:44 145.980
BEESAT 14 Dec 02:23:59 02:28:40 66° 72° (ENE) 02:33:25 436.000
AO-7 14 Dec 02:37:21 02:44:11 27° 92° (E) 02:50:59 .
M-CUBED/EXP-1 PRIME 14 Dec 02:37:41 02:38:59 11° 90° (E) 02:40:16 437.505
PCSat 14 Dec 02:40:45 02:45:52 40° 44° (NE) 02:50:59 145.827
UKube-1 14 Dec 02:42:45 02:45:23 16° 270° (W) 02:48:01 .
ITAMSAT 1 14 Dec 02:43:46 02:46:38 15° 88° (E) 02:49:29 435.822/435.867
ITUPSAT 1 14 Dec 02:51:48 02:56:33 73° 257° (WSW) 03:01:20 437.325
BUGSAT 1 14 Dec 03:04:02 03:05:59 13° 302° (WNW) 03:07:56 437.445
Oscar 19 14 Dec 03:11:33 03:15:57 29° 298° (WNW) 03:20:22 437.125/150
BEESAT 3 14 Dec 03:12:35 03:15:42 22° 33° (NNE) 03:18:48 437.485
AO-91 14 Dec 03:22:28 03:23:57 12° 302° (WNW) 03:25:24 145.960
AO-85 14 Dec 03:23:15 03:25:07 12° 12° (NNE) 03:27:02 145.980
CUBESAT XI-V 14 Dec 03:30:57 03:35:37 82° 254° (WSW) 03:40:21 437.345
Gurwin Techsat 1B 14 Dec 03:48:24 03:52:19 21° 303° (WNW) 03:56:14 435.225
MOZHAYETS 4 14 Dec 03:48:49 03:51:45 17° 271° (W) 03:54:43
YUBILEINY 14 Dec 03:50:40 03:59:29 76° 281° (WNW) 04:08:25 435.215
BEESAT 2 14 Dec 03:50:54 03:53:50 19° 30° (NNE) 03:56:46 435.950
BEESAT 14 Dec 04:03:45 04:06:55 18° 270° (W) 04:10:06 436.000
KKS-1 14 Dec 04:04:08 04:08:28 51° 70° (ENE) 04:12:48 437.445
DOVE 4 14 Dec 04:07:13 04:10:15 17° 88° (E) 04:13:09 437.250
M-CUBED/EXP-1 PRIME 14 Dec 04:09:29 04:14:07 82° 109° (ESE) 04:18:28 437.505
ITAMSAT 1 14 Dec 04:21:35 04:26:48 87° 288° (WNW) 04:31:59 435.822/435.867
PCSat 14 Dec 04:24:13 04:29:21 43° 244° (WSW) 04:34:26 145.827
AO-7 14 Dec 04:29:26 04:37:51 81° 291° (WNW) 04:46:13 .
FO-29 14 Dec 04:41:33 04:42:38 10° 36° (NE) 04:43:43 435.910
STARS 14 Dec 04:48:50 04:53:09 59° 71° (ENE) 04:57:29 437.465
BEESAT 3 14 Dec 04:49:42 04:53:39 70° 233° (SW) 04:57:30 437.485
AO-85 14 Dec 05:03:01 05:06:59 28° 35° (NE) 05:11:12 145.980
XW-2C 14 Dec 05:05:16 05:06:23 11° 87° (E) 05:07:29 145.795 - 145.815
CUBESAT XI-V 14 Dec 05:12:27 05:13:45 11° 275° (W) 05:15:04 437.345
STRAND 1 14 Dec 05:17:48 05:21:33 21° 58° (ENE) 05:25:18 437.568
BEESAT 2 14 Dec 05:28:05 05:32:09 87° 56° (NE) 05:36:09 435.950
LilacSat-2 14 Dec 05:39:08 05:42:30 27° 95° (E) 05:45:51 437.200
KKS-1 14 Dec 05:41:57 05:45:17 20° 268° (W) 05:48:39 437.445
CUTE-I 14 Dec 05:43:33 05:48:00 26° 93° (E) 05:52:25 437.470
DOVE 4 14 Dec 05:43:52 05:48:25 59° 289° (WNW) 05:52:41 437.250
M-CUBED/EXP-1 PRIME 14 Dec 05:44:53 05:47:51 17° 309° (NW) 05:50:43 437.505
HO-68 14 Dec 05:45:22 05:49:41 17° 85° (E) 05:53:59 435.675
YUBILEINY 14 Dec 05:51:44 05:58:04 21° 307° (NW) 06:04:25 435.215
XW-2D 14 Dec 05:54:05 05:57:42 37° 97° (E) 06:01:17 145.860 - 145.880
NUDT-PHONESAT 14 Dec 06:01:08 06:04:28 29° 95° (E) 06:07:48 437.300
ITAMSAT 1 14 Dec 06:02:25 06:05:32 16° 306° (NW) 06:08:40 435.822/435.867
